Location: The Stocker AstroScience Center
(25.7579°N, 80.3725°W)
Time: 04:52:12
(UTC-05:00)

ISS - All Passes

Search period start: 20 January 2017 00:00
Search period end: 30 January 2017 00:00
Orbit: 399 x 410 km, 51.6° (Epoch: 20 January)

Date Brightness Start Highest point End Pass type
(mag) Time Alt. Az. Time Alt. Az. Time Alt. Az.
20 Jan - 06:42:31 10° NW 06:45:41 53° SW 06:48:50 10° SSE visible
20 Jan - 20:06:18 10° SE 20:07:03 11° SE 20:07:48 10° ESE night (unlit)
20 Jan - 21:40:12 10° WSW 21:43:13 35° NW 21:46:14 10° NNE night (unlit)
21 Jan - 05:50:20 10° NNW 05:53:31 56° NE 05:56:42 10° SE visible
21 Jan - 20:47:45 10° SW 20:51:00 90° ESE 20:54:15 10° NE night (unlit)
22 Jan - 04:58:33 10° NNW 05:01:15 24° NE 05:03:58 10° E visible
22 Jan - 06:35:29 10° W 06:37:32 16° SW 06:39:36 10° SSW visible
22 Jan - 19:55:52 10° SSW 19:58:51 33° SE 20:01:50 10° ENE visible
22 Jan - 21:33:42 10° WNW 21:35:23 13° NW 21:37:04 10° N night (unlit)
23 Jan - 04:07:29 10° NNE 04:08:53 12° NE 04:10:16 10° ENE visible
23 Jan - 05:42:25 10° WNW 05:45:26 37° SW 05:48:28 10° SSE visible
23 Jan - 19:04:53 10° SSE 19:06:45 14° SE 19:08:38 10° E visible
23 Jan - 20:40:12 10° WSW 20:43:01 26° NW 20:45:50 10° NNE visible
24 Jan - 04:50:02 10° NW 04:53:17 80° NE 04:56:31 10° SE visible
24 Jan - 19:47:30 10° SW 19:50:44 64° NW 19:53:57 10° NE visible
25 Jan - 03:58:04 10° NNW 04:01:00 31° NE 04:03:56 10° ESE night (unlit)
25 Jan - 05:35:58 10° WSW 05:37:12 12° SW 05:38:25 10° SSW visible
25 Jan - 18:55:22 10° SSW 18:58:31 47° SE 19:01:40 10° NE visible
25 Jan - 20:34:26 10° NW 20:35:09 11° NW 20:35:52 10° NNW visible
26 Jan - 03:06:36 10° N 03:08:38 15° NE 03:10:40 10° E night (unlit)
26 Jan - 04:42:17 10° WNW 04:45:05 27° SW 04:47:53 10° S night (unlit)
26 Jan - 18:03:56 10° S 18:06:22 19° SE 18:08:47 10° ENE daylight
26 Jan - 19:40:10 10° W 19:42:42 21° NW 19:45:15 10° N visible
27 Jan - 03:49:40 10° NW 03:52:54 72° SW 03:56:07 10° SE night (unlit)
27 Jan - 18:47:12 10° WSW 18:50:21 45° NW 18:53:30 10° NNE visible
28 Jan - 02:57:32 10° NNW 03:00:38 42° NE 03:03:43 10° ESE night (unlit)
28 Jan - 17:54:49 10° SSW 17:58:04 67° SE 18:01:18 10° NE daylight
29 Jan - 02:05:49 10° N 02:08:15 19° NE 02:10:42 10° E night (unlit)
29 Jan - 03:42:09 10° WNW 03:44:36 20° SW 03:47:04 10° S night (unlit)
29 Jan - 17:03:04 10° S 17:05:51 26° SE 17:08:38 10° ENE daylight
29 Jan - 18:40:08 10° W 18:42:17 16° NW 18:44:27 10° N visible
